Flag for Liechtenstein Weather past 2 weeks in Vaduz, Liechtenstein

Now
57 °F

Cool.


Feels Like: 57 °F
Forecast: 47 / 81 °F
Wind: No wind

Location: Vaduz

Current Time: Jul 30, 2015 at 11:00:03 PM

Latest Report: Jul 30, 2015 at 10:00 PM


Visibility: N/A

Pressure: 30.04 "Hg

Humidity: 92%

Dew point: 55 °F

Location of VaduzLocation

Historic Weather in Vaduz — Graph

°F

Vaduz temperature yesterday

Maximum temperature yesterday: 66 °F (at 3:00 PM)
Minimum temperature yesterday: 56 °F (at 6:00 AM)
Average temperature yesterday: 61 °F

Past Weeks' High & Low Weather Summary

 TemperatureHumidityPressure
High91 °F (Jul 22, 4:00 PM)96% (Jul 23, 5:00 AM)30.18 "Hg (Jul 23, 5:00 AM)
Low53 °F (Jul 26, 8:00 AM)34% (Jul 16, 6:00 PM)29.67 "Hg (Jul 24, 7:00 PM)
Average70 °F69%29.93 "Hg
* Reported Jul 15 9:00 PM — Jul 30 9:00 PM, Vaduz, Weather by CustomWeather, © 2015

Note: Actual official high and low records may vary slightly from our data, if they occured in-between our weather recording intervals... More about our weather records

Advertising

Vaduz weather history for previous 24 hours

 ConditionsComfort  
Time TempWeatherWind HumidityBarometerVisibility
9:00 PM
Thu, Jul 30
60 °FCool.No wind85%30.02 "HgN/A
8:00 PM63 °FOvercast.No wind75%29.99 "Hg12 mi
7:00 PM64 °FMild.1 mph68%29.99 "HgN/A
6:00 PM64 °FMild.1 mph62%29.99 "HgN/A
5:00 PM64 °FOvercast.3 mph63%29.99 "Hg7 mi
4:00 PM64 °FMild.5 mph64%29.99 "HgN/A
3:00 PM63 °FMild.6 mph66%30.00 "HgN/A
2:00 PM63 °FOvercast.5 mph60%30.00 "Hg7 mi
1:00 PM63 °FMild.5 mph64%30.00 "HgN/A
12:00 PM61 °FCool.6 mph67%30.02 "HgN/A
11:00 AM60 °FFog.3 mph76%30.02 "Hg6 mi
10:00 AM58 °FCool.3 mph80%30.03 "HgN/A
9:00 AM57 °FCool.2 mph84%30.03 "HgN/A
8:00 AM57 °FFog.1 mph83%30.02 "Hg4 mi
7:00 AM55 °FCool.No wind91%30.02 "HgN/A
6:00 AM55 °FCool.1 mph88%30.02 "HgN/A
4:00 AM55 °FCool.2 mph93%30.01 "HgN/A
3:00 AM56 °FCool.2 mph86%30.02 "HgN/A
2:00 AM55 °FFog.2 mph88%30.03 "Hg6 mi
1:00 AM56 °FCool.5 mph85%30.02 "HgN/A
12:00 AM57 °FCool.5 mph89%30.01 "HgN/A
11:00 PM
Wed, Jul 29
58 °FLight rain. Overcast.6 mph88%29.99 "Hg6 mi
Weather by CustomWeather, © 2015

See weather overviewHow to use our weather pages